NILESAT 201

Last updated on Nov. 15, 2019, 4:20 a.m. UTC

1 36830U 10037A   19318.33892178 -.00000043  00000-0  00000+0 0  9991
2 36830   0.0535 145.4337 0003658  77.2884 305.4558  1.00271721 34154
UTC
Height (km)
Latitude
Longitude
Inclination
Orbital Period
UTC large
Height (km)
Speed (km/s)
/
Latitude / Longitude
Inclination (degrees)
Orbital Period (minutes)
Azimuth
Elevation
Range (km)
Doppler Factor
iOS Compass Heading
iOS Angle

Next 30 passes for location: Hong Kong

Rise time Rise Azimuth (degrees) Set time Set Azimuth (degrees) Duration Max altitude (degrees)

No matching passes for this satellites